Regional Weather Roundup
Issued by NWS

Home | Current Version | Previous Version | Graphics & Text | Print | Product List | Glossary On
Versions: 1 2 3 4 5 6 7 8 9 10 11 12 13 14 15 16 17 18 19 20 21 22 23 24 25 26 27 28 29 30 31 32 33 34 35 36 37 38 39 40 41 42 43 44 45 46 47 48 49 50
000
ASUS43 KLOT 260403
RWRIL

ILLINOIS REGIONAL WEATHER ROUNDUP
NATIONAL WEATHER SERVICE CHICAGO/ROMEOVILLE IL
1100 PM CDT TUE APR 25 2017

NOTE: "FAIR" INDICATES FEW OR NO CLOUDS BELOW 12,000 FEET WITH NO
SIGNIFICANT WEATHER AND/OR OBSTRUCTIONS TO VISIBILITY.

* THESE STATIONS ARE NOT UNDER NWS QUALITY CONTROL. THEY ALSO MAY NOT
  REPORT WEATHER SUCH AS PRECIPITATION OR FOG.

ILZ001-002-007-009-015-016-024-260500-
NORTHWEST ILLINOIS

CITY           SKY/WX    TMP DP  RH WIND       PRES   REMARKS
MOLINE         CLOUDY    69  49  48 SE10      29.44F
STERLING*      CLOUDY    70  52  52 SE8       29.50F
SAVANNA*       CLOUDY    69  49  48 SE9       29.47F
$$

ILZ003-004-008-010-011-017-018-260500-
NORTH CENTRAL ILLINOIS

CITY           SKY/WX    TMP DP  RH WIND       PRES   REMARKS
ROCKFORD       CLOUDY    68  50  52 SE12      29.53F
FREEPORT*      CLOUDY    67  49  52 SE12      29.52F
ROCHELLE*      CLOUDY    66  51  57 SE13      29.53F
DE KALB*       CLOUDY    66  52  61 SE12      29.55F
PERU*          MOCLDY    68  51  55 SE14      29.53F
$$

ILZ005-006-012>014-019>023-260500-
NORTHEAST ILLINOIS

CITY           SKY/WX    TMP DP  RH WIND       PRES   REMARKS
CHICAGO-OHARE  MOCLDY    67  52  58 SE9       29.56F
CHICAGO-MIDWAY MOCLDY    71  54  54 SE7       29.57F
AURORA         CLEAR     68  53  58 SE10      29.55F
LANSING*       CLOUDY    65  56  71 S6        29.60S
JOLIET*        PTCLDY    69  54  59 S6        29.57F
WAUKEGAN       MOCLDY    58  50  75 SE8       29.57F
DUPAGE AIRPORT PTCLDY    68  53  58 SE10      29.55F
KANKAKEE*      PTCLDY    67  53  59 S9        29.60S
WHEELING       PTCLDY    67  54  63 E6        29.58S
MORRIS*        PTCLDY    68  52  56 S10       29.54F
NORTHERLY ISL    N/A     58  51  78 CALM        N/A
$$

LMZ740>746-260500-
SOUTHERN LAKE MICHIGAN

STATION/POSITION SKY/WX   TEMP    WIND        PRES    VSBY  WAVE
                          AIR SEA DIR/SP/G                  HT/PER
                          (F)     (DEG/KT/KT) (MB)    (MI)  (FT/S)
SOUTHERN BUOY              50 42   70/ 10/ 10 1002.8          0
HARRISON CRIB              63     140/ 17/ 18   N/A
BURNHAM HARBOR             58      CALM  /  4   N/A
CALUMET HARBOR             72     150/  9/ 13 1001.6S
BURNS HARBOR               71     170/  9/ 16 1003.0S
MICHIGAN CITY              70     140/  9/ 12   N/A
ST. JOSEPH                 61 50  180/  6/  6 1003.1R         0
$$

ILZ025>027-034>036-040-047-049-050-058-095>099-260500-
WEST-CENTRAL ILLINOIS

CITY           SKY/WX    TMP DP  RH WIND       PRES   REMARKS
QUINCY         CLOUDY    73  51  46 S14       29.47R
GALESBURG*     CLOUDY    70  49  48 S9G17     29.47R
MACOMB*        CLOUDY    70  49  45 S10       29.50R
JACKSONVILLE*  MOCLDY    71  49  46 S13G20    29.51S
PITTSFIELD*    CLOUDY    73  52  47 S12       29.51R
$$

ILZ028>032-037-038-041>044-048-051>054-059>061-260500-
CENTRAL ILLINOIS

CITY           SKY/WX    TMP DP  RH WIND       PRES   REMARKS
PONTIAC        CLOUDY    70  55  58 SE13      29.56F
BLOOMINGTON    CLOUDY    67  55  65 S16       29.56F
DECATUR        CLOUDY    67  57  70 SE10      29.57F
PEORIA         CLOUDY    72  50  45 S14       29.51F
LINCOLN*       CLOUDY    69  55  62 S10       29.54F
SPRINGFIELD    CLOUDY    72  50  45 S17       29.53S
TAYLORVILLE    CLOUDY    67  52  58 S12       29.56S
$$

ILZ033-039-045-046-055>057-062-063-260500-
EAST-CENTRAL ILLINOIS

CITY           SKY/WX    TMP DP  RH WIND       PRES   REMARKS
CHAMPAIGN      PTCLDY    68  54  60 S12       29.60S
RANTOUL*       CLOUDY    68  55  64 SE7       29.60S
MATTOON        MOCLDY    67  57  70 S7        29.60R
PARIS*         PTCLDY    67  56  67 S8        29.63S
$$

ILZ079-100>102-260500-
SOUTHWEST ILLINOIS

CITY           SKY/WX    TMP DP  RH WIND       PRES   REMARKS
ALTON          CLOUDY    66  51  57 SE8       29.55S
BELLEVILLE     MOCLDY    64  53  67 E6        29.54S
CAHOKIA*       MOCLDY    68  50  52 S8        29.54S
SPARTA*        PTCLDY    64  52  65 SE5       29.58S
$$

ILZ064>066-069>071-074>076-080>082-084>086-088>090-092>094-260500-
SOUTH-CENTRAL ILLINOIS

CITY           SKY/WX    TMP DP  RH WIND       PRES   REMARKS
CARBONDALE     CLOUDY    67  55  65 S9        29.58R
CAIRO*         CLEAR     68  55  64 S10       29.60S
EFFINGHAM*     CLOUDY    67  58  72 SE6       29.61F
MARION         CLEAR     70  55  60 S13       29.59S
MT. VERNON     CLEAR     67  57  70 S3        29.59F
CENTRALIA*     CLEAR     65  57  77 SE3       29.58S
SALEM*         PTCLDY    69  55  61 SE3       29.59S
METROPOLIS*    CLEAR     69  55  60 S5        29.61F
$$

ILZ067-068-072-073-078-083-087-091-260500-
SOUTHEAST ILLINOIS

CITY           SKY/WX    TMP DP  RH WIND       PRES   REMARKS
LAWRENCEVILLE  CLOUDY    69  57  65 S10       29.62R
FLORA*         CLOUDY    66  58  76 SE3       29.61S
FAIRFIELD*     CLOUDY    67  57  70 S3        29.60S
HARRISBURG*    CLEAR     68  56  65 S8        29.61S
ROBINSON*      CLOUDY    67  56  69 S7        29.63R
CARMI*         PTCLDY    63  59  85 SE6       29.61R
$$

ABBREVIATIONS USED IN REMARKS
   TC - TEMPERATURE IN CELSIUS
  WCI - WIND CHILL INDEX
   HX - HEAT INDEX
  VSB - VISIBILITY
$$





USA.gov is the U.S. government's official web portal to all federal, state and local government web resources and services.